Time,TemperatureF,DewpointF,PressureIn,WindDirection,WindDirectionDegrees,WindSpeedMPH,WindSpeedGustMPH,Humidity,HourlyPrecipIn,Conditions,Clouds,dailyrainin,SoftwareType,DateUTC
2013-03-20 00:01:00,5.2,-2.7,30.33,WNW,297,13.0,15.0,69,0.00,,CLR,0.00,VWS V14.00,2013-03-20 05:01:00,
2013-03-20 00:06:00,5.3,-2.6,30.33,WNW,301,10.0,16.0,69,0.00,,CLR,0.00,VWS V14.00,2013-03-20 05:06:00,
2013-03-20 00:11:00,5.4,-2.5,30.33,NW,310,5.0,13.0,69,0.00,,CLR,0.00,VWS V14.00,2013-03-20 05:11:00,
2013-03-20 00:16:00,5.3,-2.6,30.33,WNW,291,2.0,14.0,69,0.00,,CLR,0.00,VWS V14.00,2013-03-20 05:16:00,
2013-03-20 00:21:00,5.3,-2.6,30.33,NW,304,13.0,13.0,69,0.00,,CLR,0.00,VWS V14.00,2013-03-20 05:21:00,
2013-03-20 00:26:00,5.3,-2.6,30.33,NW,313,13.0,19.0,69,0.00,,CLR,0.00,VWS V14.00,2013-03-20 05:26:00,
2013-03-20 00:31:00,5.3,-2.6,30.33,NW,304,7.0,15.0,69,0.00,,CLR,0.00,VWS V14.00,2013-03-20 05:31:00,
2013-03-20 00:36:00,5.4,-2.5,30.33,WNW,288,3.0,18.0,69,0.00,,CLR,0.00,VWS V14.00,2013-03-20 05:36:00,
2013-03-20 00:42:00,5.3,-2.6,30.33,NW,317,8.0,15.0,69,0.00,,CLR,0.00,VWS V14.00,2013-03-20 05:42:00,
2013-03-20 00:47:00,5.5,-2.5,30.33,NW,308,8.0,15.0,69,0.00,,CLR,0.00,VWS V14.00,2013-03-20 05:47:00,
2013-03-20 00:52:00,5.5,-2.5,30.33,NW,319,9.0,14.0,69,0.00,,CLR,0.00,VWS V14.00,2013-03-20 05:52:00,
2013-03-20 00:57:00,5.5,-2.5,30.33,WNW,300,8.0,16.0,69,0.00,,CLR,0.00,VWS V14.00,2013-03-20 05:57:00,
2013-03-20 01:02:00,5.5,-2.5,30.33,WNW,303,16.0,17.0,69,0.00,,CLR,0.00,VWS V14.00,2013-03-20 06:02:00,
2013-03-20 01:07:00,5.4,-2.5,30.33,WNW,296,6.0,17.0,69,0.00,,CLR,0.00,VWS V14.00,2013-03-20 06:07:00,
2013-03-20 01:12:00,5.3,-2.6,30.33,NW,306,7.0,13.0,69,0.00,,CLR,0.00,VWS V14.00,2013-03-20 06:12:00,
2013-03-20 01:17:00,5.2,-2.7,30.33,NW,304,11.0,13.0,69,0.00,,CLR,0.00,VWS V14.00,2013-03-20 06:17:00,
2013-03-20 01:22:00,4.9,-3.0,30.33,WNW,292,5.0,10.0,69,0.00,,CLR,0.00,VWS V14.00,2013-03-20 06:22:00,
2013-03-20 01:27:00,4.7,-3.2,30.33,NW,304,5.0,16.0,69,0.00,,CLR,0.00,VWS V14.00,2013-03-20 06:27:00,
2013-03-20 01:32:00,4.6,-3.6,30.33,WNW,303,8.0,10.0,68,0.00,,CLR,0.00,VWS V14.00,2013-03-20 06:32:00,
2013-03-20 01:37:00,4.4,-3.5,30.33,WNW,294,7.0,11.0,69,0.00,,CLR,0.00,VWS V14.00,2013-03-20 06:37:00,
2013-03-20 01:42:00,4.2,-3.7,30.33,WNW,294,3.0,10.0,69,0.00,,CLR,0.00,VWS V14.00,2013-03-20 06:42:00,
2013-03-20 01:47:00,4.1,-3.8,30.33,West,279,7.0,12.0,69,0.00,,CLR,0.00,VWS V14.00,2013-03-20 06:47:00,
2013-03-20 01:52:00,4.0,-3.9,30.33,WNW,288,6.0,11.0,69,0.00,,CLR,0.00,VWS V14.00,2013-03-20 06:52:00,
2013-03-20 01:57:00,3.7,-4.2,30.33,WNW,290,3.0,11.0,69,0.00,,CLR,0.00,VWS V14.00,2013-03-20 06:57:00,
2013-03-20 02:02:00,3.5,-4.4,30.33,WNW,285,8.0,12.0,69,0.00,,CLR,0.00,VWS V14.00,2013-03-20 07:02:00,
2013-03-20 02:07:00,3.3,-4.6,30.33,WNW,295,5.0,12.0,69,0.00,,CLR,0.00,VWS V14.00,2013-03-20 07:07:00,
2013-03-20 02:13:00,3.2,-4.7,30.33,WNW,285,8.0,13.0,69,0.00,,CLR,0.00,VWS V14.00,2013-03-20 07:13:00,
2013-03-20 02:18:00,3.2,-4.7,30.33,WNW,289,11.0,17.0,69,0.00,,CLR,0.00,VWS V14.00,2013-03-20 07:18:00,
2013-03-20 02:23:00,3.2,-4.7,30.33,WNW,291,9.0,12.0,69,0.00,,CLR,0.00,VWS V14.00,2013-03-20 07:23:00,
2013-03-20 02:28:00,3.1,-4.8,30.33,WNW,287,6.0,15.0,69,0.00,,CLR,0.00,VWS V14.00,2013-03-20 07:28:00,
2013-03-20 02:33:00,3.0,-4.8,30.33,WNW,295,8.0,9.0,69,0.00,,CLR,0.00,VWS V14.00,2013-03-20 07:33:00,
2013-03-20 02:38:00,3.0,-4.8,30.33,WNW,298,5.0,15.0,69,0.00,,CLR,0.00,VWS V14.00,2013-03-20 07:38:00,
2013-03-20 02:43:00,3.0,-4.8,30.34,WNW,300,7.0,12.0,69,0.00,,CLR,0.00,VWS V14.00,2013-03-20 07:43:00,
2013-03-20 02:48:00,3.2,-4.7,30.34,WNW,286,5.0,12.0,69,0.00,,CLR,0.00,VWS V14.00,2013-03-20 07:48:00,
2013-03-20 02:53:00,3.1,-4.8,30.34,WNW,286,9.0,13.0,69,0.00,,CLR,0.00,VWS V14.00,2013-03-20 07:53:00,
2013-03-20 02:58:00,3.1,-4.8,30.34,WNW,295,5.0,13.0,69,0.00,,CLR,0.00,VWS V14.00,2013-03-20 07:58:00,
2013-03-20 03:03:00,3.1,-4.8,30.34,WNW,289,6.0,14.0,69,0.00,,CLR,0.00,VWS V14.00,2013-03-20 08:03:00,
2013-03-20 03:08:00,3.0,-5.2,30.34,West,279,7.0,14.0,68,0.00,,CLR,0.00,VWS V14.00,2013-03-20 08:08:00,
2013-03-20 03:13:00,2.9,-4.9,30.34,West,281,8.0,12.0,69,0.00,,CLR,0.00,VWS V14.00,2013-03-20 08:13:00,
2013-03-20 03:18:00,2.8,-5.3,30.34,West,281,6.0,13.0,68,0.00,,CLR,0.00,VWS V14.00,2013-03-20 08:18:00,
2013-03-20 03:23:00,2.7,-5.4,30.34,WNW,296,3.0,13.0,68,0.00,,CLR,0.00,VWS V14.00,2013-03-20 08:23:00,
2013-03-20 03:28:00,2.6,-5.5,30.34,WNW,291,6.0,13.0,68,0.00,,CLR,0.00,VWS V14.00,2013-03-20 08:28:00,
2013-03-20 03:33:00,2.4,-5.7,30.34,West,279,10.0,12.0,68,0.00,,CLR,0.00,VWS V14.00,2013-03-20 08:33:00,
2013-03-20 03:38:00,2.3,-5.8,30.34,WNW,290,5.0,14.0,68,0.00,,CLR,0.00,VWS V14.00,2013-03-20 08:38:00,
2013-03-20 03:43:00,2.2,-5.9,30.34,WNW,292,14.0,14.0,68,0.00,,CLR,0.00,VWS V14.00,2013-03-20 08:43:00,
2013-03-20 03:48:00,2.2,-5.9,30.34,WNW,296,6.0,17.0,68,0.00,,CLR,0.00,VWS V14.00,2013-03-20 08:48:00,
2013-03-20 03:53:00,2.2,-5.9,30.34,WNW,294,7.0,11.0,68,0.00,,CLR,0.00,VWS V14.00,2013-03-20 08:53:00,
2013-03-20 03:58:00,2.0,-6.1,30.34,WNW,300,3.0,13.0,68,0.00,,CLR,0.00,VWS V14.00,2013-03-20 08:58:00,
2013-03-20 04:03:00,2.0,-6.1,30.33,WNW,284,5.0,12.0,68,0.00,,CLR,0.00,VWS V14.00,2013-03-20 09:03:00,
2013-03-20 04:08:00,2.0,-6.1,30.33,WNW,286,2.0,12.0,68,0.00,,CLR,0.00,VWS V14.00,2013-03-20 09:08:00,
2013-03-20 04:13:00,1.9,-6.2,30.33,WNW,289,9.0,9.0,68,0.00,,CLR,0.00,VWS V14.00,2013-03-20 09:13:00,
2013-03-20 04:18:00,2.0,-6.1,30.34,WNW,290,2.0,15.0,68,0.00,,CLR,0.00,VWS V14.00,2013-03-20 09:18:00,
2013-03-20 04:23:00,1.9,-6.2,30.34,WNW,285,10.0,11.0,68,0.00,,CLR,0.00,VWS V14.00,2013-03-20 09:23:00,
2013-03-20 04:28:00,1.9,-6.2,30.34,WNW,287,8.0,11.0,68,0.00,,CLR,0.00,VWS V14.00,2013-03-20 09:28:00,
2013-03-20 04:33:00,1.9,-6.2,30.34,West,281,5.0,13.0,68,0.00,,CLR,0.00,VWS V14.00,2013-03-20 09:33:00,
2013-03-20 04:38:00,1.9,-6.2,30.34,WNW,298,8.0,13.0,68,0.00,,CLR,0.00,VWS V14.00,2013-03-20 09:38:00,
2013-03-20 04:43:00,2.0,-6.1,30.33,WNW,299,5.0,17.0,68,0.00,,CLR,0.00,VWS V14.00,2013-03-20 09:43:00,
2013-03-20 04:48:00,1.9,-6.2,30.33,NW,308,6.0,17.0,68,0.00,,CLR,0.00,VWS V14.00,2013-03-20 09:48:00,
2013-03-20 04:53:00,2.0,-6.1,30.33,NW,310,8.0,11.0,68,0.00,,CLR,0.00,VWS V14.00,2013-03-20 09:53:00,
2013-03-20 04:58:00,1.9,-6.2,30.34,NW,312,4.0,12.0,68,0.00,,CLR,0.00,VWS V14.00,2013-03-20 09:58:00,
2013-03-20 05:03:00,1.8,-6.3,30.34,WNW,288,8.0,11.0,68,0.00,,CLR,0.00,VWS V14.00,2013-03-20 10:03:00,
2013-03-20 05:08:00,1.8,-6.3,30.34,NW,307,2.0,12.0,68,0.00,,CLR,0.00,VWS V14.00,2013-03-20 10:08:00,
2013-03-20 05:13:00,1.8,-6.3,30.34,WNW,303,5.0,10.0,68,0.00,,CLR,0.00,VWS V14.00,2013-03-20 10:13:00,
2013-03-20 05:18:00,1.6,-6.5,30.34,WNW,300,4.0,13.0,68,0.00,,CLR,0.00,VWS V14.00,2013-03-20 10:18:00,
2013-03-20 05:23:00,1.5,-6.6,30.34,West,280,4.0,9.0,68,0.00,,CLR,0.00,VWS V14.00,2013-03-20 10:23:00,
2013-03-20 05:28:00,1.4,-6.7,30.33,WNW,292,4.0,10.0,68,0.00,,CLR,0.00,VWS V14.00,2013-03-20 10:28:00,
2013-03-20 05:33:00,1.3,-6.8,30.34,WNW,285,4.0,11.0,68,0.00,,CLR,0.00,VWS V14.00,2013-03-20 10:33:00,
2013-03-20 05:38:00,1.2,-7.2,30.34,WNW,298,3.0,12.0,67,0.00,,CLR,0.00,VWS V14.00,2013-03-20 10:38:00,
2013-03-20 05:44:00,0.9,-7.2,30.34,WNW,292,4.0,11.0,68,0.00,,CLR,0.00,VWS V14.00,2013-03-20 10:44:00,
2013-03-20 05:49:00,0.8,-7.3,30.34,WNW,285,6.0,12.0,68,0.00,,CLR,0.00,VWS V14.00,2013-03-20 10:49:00,
2013-03-20 05:54:00,0.8,-7.3,30.34,WNW,299,6.0,10.0,68,0.00,,CLR,0.00,VWS V14.00,2013-03-20 10:54:00,
2013-03-20 05:59:00,0.6,-7.5,30.34,WNW,296,3.0,11.0,68,0.00,,CLR,0.00,VWS V14.00,2013-03-20 10:59:00,
2013-03-20 06:04:00,0.5,-7.6,30.34,WNW,288,7.0,11.0,68,0.00,,CLR,0.00,VWS V14.00,2013-03-20 11:04:00,
2013-03-20 06:09:00,0.5,-7.6,30.34,WNW,289,7.0,11.0,68,0.00,,CLR,0.00,VWS V14.00,2013-03-20 11:09:00,
2013-03-20 06:14:00,0.3,-7.8,30.35,WNW,285,4.0,10.0,68,0.00,,CLR,0.00,VWS V14.00,2013-03-20 11:14:00,
2013-03-20 06:19:00,0.1,-7.9,30.35,WNW,290,5.0,10.0,68,0.00,,CLR,0.00,VWS V14.00,2013-03-20 11:19:00,
2013-03-20 06:24:00,-0.2,-8.2,30.35,WNW,282,9.0,10.0,68,0.00,,CLR,0.00,VWS V14.00,2013-03-20 11:24:00,
2013-03-20 06:29:00,-0.2,-8.2,30.35,WNW,287,3.0,13.0,68,0.00,,CLR,0.00,VWS V14.00,2013-03-20 11:29:00,
2013-03-20 06:34:00,-0.2,-8.2,30.35,WNW,297,7.0,11.0,68,0.00,,CLR,0.00,VWS V14.00,2013-03-20 11:34:00,
2013-03-20 06:39:00,-0.4,-8.4,30.35,WNW,285,8.0,11.0,68,0.00,,CLR,0.00,VWS V14.00,2013-03-20 11:39:00,
2013-03-20 06:44:00,-0.5,-8.5,30.35,West,278,9.0,10.0,68,0.00,,CLR,0.00,VWS V14.00,2013-03-20 11:44:00,
2013-03-20 06:49:00,-0.5,-8.5,30.35,West,281,10.0,12.0,68,0.00,,CLR,0.00,VWS V14.00,2013-03-20 11:49:00,
2013-03-20 06:54:00,-0.6,-8.6,30.35,WNW,288,7.0,10.0,68,0.00,,CLR,0.00,VWS V14.00,2013-03-20 11:54:00,
2013-03-20 06:59:00,-0.6,-8.6,30.35,WNW,285,9.0,13.0,68,0.00,,CLR,0.00,VWS V14.00,2013-03-20 11:59:00,
2013-03-20 07:04:00,-0.5,-8.5,30.35,WNW,286,6.0,12.0,68,0.00,,CLR,0.00,VWS V14.00,2013-03-20 12:04:00,
2013-03-20 07:09:00,-0.8,-8.8,30.35,WNW,286,11.0,15.0,68,0.00,,CLR,0.00,VWS V14.00,2013-03-20 12:09:00,
2013-03-20 07:14:00,-0.8,-8.8,30.35,West,278,5.0,13.0,68,0.00,,CLR,0.00,VWS V14.00,2013-03-20 12:14:00,
2013-03-20 07:19:00,-0.8,-8.8,30.35,WNW,292,8.0,15.0,68,0.00,,CLR,0.00,VWS V14.00,2013-03-20 12:19:00,
2013-03-20 07:24:00,-0.8,-8.8,30.35,West,276,6.0,10.0,68,0.00,,CLR,0.00,VWS V14.00,2013-03-20 12:24:00,
2013-03-20 07:29:00,-0.9,-8.9,30.35,WNW,286,7.0,12.0,68,0.00,,CLR,0.00,VWS V14.00,2013-03-20 12:29:00,
2013-03-20 07:34:00,-0.9,-8.9,30.35,WNW,296,8.0,8.0,68,0.00,,CLR,0.00,VWS V14.00,2013-03-20 12:34:00,
2013-03-20 07:39:00,-0.9,-8.9,30.35,WNW,286,3.0,12.0,68,0.00,,CLR,0.00,VWS V14.00,2013-03-20 12:39:00,
2013-03-20 07:44:00,-1.0,-9.0,30.35,WNW,292,5.0,9.0,68,0.00,,CLR,0.00,VWS V14.00,2013-03-20 12:44:00,
2013-03-20 07:49:00,-1.0,-9.0,30.35,WNW,291,7.0,12.0,68,0.00,,CLR,0.00,VWS V14.00,2013-03-20 12:49:00,
2013-03-20 07:54:00,-1.1,-9.1,30.35,WNW,288,7.0,11.0,68,0.00,,CLR,0.00,VWS V14.00,2013-03-20 12:54:00,
2013-03-20 07:59:00,-1.0,-9.0,30.35,WNW,287,3.0,11.0,68,0.00,,CLR,0.00,VWS V14.00,2013-03-20 12:59:00,
2013-03-20 08:04:00,-1.0,-9.0,30.35,WNW,286,8.0,9.0,68,0.00,,CLR,0.00,VWS V14.00,2013-03-20 13:04:00,
2013-03-20 08:09:00,-0.9,-8.6,30.35,West,279,8.0,10.0,69,0.00,,CLR,0.00,VWS V14.00,2013-03-20 13:09:00,
2013-03-20 08:14:00,-0.9,-8.9,30.35,West,279,8.0,11.0,68,0.00,,CLR,0.00,VWS V14.00,2013-03-20 13:14:00,
2013-03-20 08:19:00,-0.9,-8.9,30.35,WNW,285,10.0,14.0,68,0.00,,CLR,0.00,VWS V14.00,2013-03-20 13:19:00,
2013-03-20 08:24:00,-0.9,-8.9,30.35,WNW,286,0.0,11.0,68,0.00,,CLR,0.00,VWS V14.00,2013-03-20 13:24:00,
2013-03-20 08:29:00,-0.8,-8.8,30.35,WNW,288,6.0,11.0,68,0.00,,CLR,0.00,VWS V14.00,2013-03-20 13:29:00,
2013-03-20 08:34:00,-0.7,-8.7,30.35,WNW,291,8.0,11.0,68,0.00,,CLR,0.00,VWS V14.00,2013-03-20 13:34:00,
2013-03-20 08:39:00,-0.5,-8.5,30.35,WNW,302,1.0,11.0,68,0.00,,CLR,0.00,VWS V14.00,2013-03-20 13:39:00,
2013-03-20 08:44:00,-0.2,-8.2,30.35,WNW,300,3.0,13.0,68,0.00,,CLR,0.00,VWS V14.00,2013-03-20 13:44:00,
2013-03-20 08:49:00,0.2,-7.8,30.35,WNW,299,9.0,13.0,68,0.00,,CLR,0.00,VWS V14.00,2013-03-20 13:49:00,
2013-03-20 08:54:00,0.5,-7.6,30.35,WNW,284,3.0,14.0,68,0.00,,CLR,0.00,VWS V14.00,2013-03-20 13:54:00,
2013-03-20 08:59:00,0.8,-7.3,30.35,WNW,285,9.0,14.0,68,0.00,,CLR,0.00,VWS V14.00,2013-03-20 13:59:00,
2013-03-20 09:04:00,1.0,-7.1,30.35,NW,308,10.0,13.0,68,0.00,,CLR,0.00,VWS V14.00,2013-03-20 14:04:00,
2013-03-20 09:09:00,1.4,-6.7,30.35,WNW,284,5.0,13.0,68,0.00,,CLR,0.00,VWS V14.00,2013-03-20 14:09:00,
2013-03-20 09:14:00,1.6,-6.8,30.35,WNW,288,9.0,9.0,67,0.00,,CLR,0.00,VWS V14.00,2013-03-20 14:14:00,
2013-03-20 09:19:00,1.8,-6.6,30.35,WNW,299,8.0,16.0,67,0.00,,CLR,0.00,VWS V14.00,2013-03-20 14:19:00,
2013-03-20 09:24:00,2.2,-6.2,30.35,NW,317,6.0,11.0,67,0.00,,CLR,0.00,VWS V14.00,2013-03-20 14:24:00,
2013-03-20 09:29:00,2.6,-5.8,30.35,NW,310,8.0,13.0,67,0.00,,CLR,0.00,VWS V14.00,2013-03-20 14:29:00,
2013-03-20 09:34:00,3.1,-5.7,30.35,WNW,301,3.0,13.0,66,0.00,,CLR,0.00,VWS V14.00,2013-03-20 14:34:00,
2013-03-20 09:39:00,3.6,-5.2,30.35,NW,305,1.0,13.0,66,0.00,,CLR,0.00,VWS V14.00,2013-03-20 14:39:00,
2013-03-20 09:44:00,4.1,-4.7,30.35,WNW,299,7.0,11.0,66,0.00,,CLR,0.00,VWS V14.00,2013-03-20 14:44:00,
2013-03-20 09:49:00,4.7,-4.5,30.35,NW,320,0.0,14.0,65,0.00,,CLR,0.00,VWS V14.00,2013-03-20 14:49:00,
2013-03-20 09:54:00,5.1,-4.1,30.34,NW,310,5.0,12.0,65,0.00,,CLR,0.00,VWS V14.00,2013-03-20 14:54:00,
2013-03-20 10:00:00,5.5,-4.0,30.34,NW,314,9.0,13.0,64,0.00,,CLR,0.14,VWS V14.00,2013-03-20 15:00:00,
2013-03-20 10:05:00,5.8,-3.7,30.34,WNW,302,5.0,12.0,64,0.00,,CLR,0.00,VWS V14.00,2013-03-20 15:05:00,
2013-03-20 10:10:00,6.2,-3.3,30.34,NW,311,5.0,12.0,64,0.00,,CLR,0.00,VWS V14.00,2013-03-20 15:10:00,
2013-03-20 10:15:00,6.6,-3.0,30.34,WNW,303,6.0,10.0,64,0.00,,CLR,0.00,VWS V14.00,2013-03-20 15:15:00,
2013-03-20 10:20:00,7.2,-2.7,30.33,NW,313,6.0,8.0,63,0.00,,CLR,0.00,VWS V14.00,2013-03-20 15:20:00,
2013-03-20 10:25:00,7.6,-2.7,30.33,WNW,302,6.0,9.0,62,0.00,,CLR,0.00,VWS V14.00,2013-03-20 15:25:00,
2013-03-20 10:30:00,8.1,-2.2,30.33,NW,309,0.0,1.0,62,0.00,,CLR,0.00,VWS V14.00,2013-03-20 15:30:00,
2013-03-20 10:35:00,8.8,-1.5,30.33,NW,324,1.0,8.0,62,0.00,,CLR,0.00,VWS V14.00,2013-03-20 15:35:00,
2013-03-20 10:40:00,9.5,-0.9,30.33,WNW,300,4.0,10.0,62,0.00,,CLR,0.00,VWS V14.00,2013-03-20 15:40:00,
2013-03-20 10:45:00,9.9,-1.2,30.33,NW,304,2.0,10.0,60,0.00,,CLR,0.00,VWS V14.00,2013-03-20 15:45:00,
2013-03-20 10:50:00,10.2,-0.9,30.33,WNW,301,0.0,0.0,60,0.00,,CLR,0.00,VWS V14.00,2013-03-20 15:50:00,
2013-03-20 10:55:00,10.7,-0.8,30.33,NW,309,7.0,9.0,59,0.00,,CLR,0.00,VWS V14.00,2013-03-20 15:55:00,
2013-03-20 11:00:00,10.6,-1.2,30.33,WNW,294,5.0,8.0,58,0.00,,CLR,0.00,VWS V14.00,2013-03-20 16:00:00,
2013-03-20 11:05:00,10.8,-0.7,30.33,NW,308,7.0,11.0,59,0.00,,CLR,0.00,VWS V14.00,2013-03-20 16:05:00,
2013-03-20 11:10:00,10.9,-1.0,30.33,WNW,292,10.0,11.0,58,0.00,,CLR,0.00,VWS V14.00,2013-03-20 16:10:00,
2013-03-20 11:15:00,10.9,-1.0,30.33,NW,307,5.0,13.0,58,0.00,,CLR,0.00,VWS V14.00,2013-03-20 16:15:00,
2013-03-20 11:20:00,11.0,-1.2,30.33,NW,318,6.0,8.0,57,0.00,,CLR,0.00,VWS V14.00,2013-03-20 16:20:00,
2013-03-20 11:25:00,11.3,-0.2,30.33,NW,308,0.0,10.0,59,0.00,,CLR,0.00,VWS V14.00,2013-03-20 16:25:00,
2013-03-20 11:30:00,11.8,-0.1,30.33,NW,314,9.0,12.0,58,0.00,,CLR,0.00,VWS V14.00,2013-03-20 16:30:00,
2013-03-20 11:35:00,11.8,-0.5,30.33,NW,308,6.0,12.0,57,0.00,,CLR,0.00,VWS V14.00,2013-03-20 16:35:00,
2013-03-20 11:40:00,12.0,-0.3,30.33,WNW,289,7.0,9.0,57,0.00,,CLR,0.00,VWS V14.00,2013-03-20 16:40:00,
2013-03-20 11:45:00,12.2,0.3,30.33,NW,312,2.0,11.0,58,0.00,,CLR,0.00,VWS V14.00,2013-03-20 16:45:00,
2013-03-20 11:50:00,12.7,0.4,30.33,WNW,298,4.0,7.0,57,0.00,,CLR,0.00,VWS V14.00,2013-03-20 16:50:00,
2013-03-20 11:55:00,12.6,-0.1,30.33,NW,317,7.0,11.0,56,0.00,,CLR,0.00,VWS V14.00,2013-03-20 16:55:00,
2013-03-20 12:00:00,12.5,-0.2,30.33,WNW,295,7.0,9.0,56,0.00,,CLR,0.00,VWS V14.00,2013-03-20 17:00:00,
2013-03-20 12:05:00,12.2,-0.1,30.33,NW,310,7.0,13.0,57,0.00,,CLR,0.00,VWS V14.00,2013-03-20 17:05:00,
2013-03-20 12:10:00,12.2,-0.5,30.32,WNW,302,8.0,12.0,56,0.00,,CLR,0.00,VWS V14.00,2013-03-20 17:10:00,
2013-03-20 12:15:00,12.2,-0.1,30.32,NW,307,5.0,13.0,57,0.00,,CLR,0.00,VWS V14.00,2013-03-20 17:15:00,
2013-03-20 12:20:00,12.6,0.3,30.32,NW,309,7.0,10.0,57,0.00,,CLR,0.00,VWS V14.00,2013-03-20 17:20:00,
2013-03-20 12:25:00,13.0,0.6,30.32,NW,306,7.0,12.0,57,0.00,,CLR,0.00,VWS V14.00,2013-03-20 17:25:00,
2013-03-20 12:30:00,13.5,1.1,30.32,NW,311,9.0,12.0,57,0.00,,CLR,0.00,VWS V14.00,2013-03-20 17:30:00,
2013-03-20 12:35:00,13.6,0.8,30.31,NW,305,6.0,14.0,56,0.00,,CLR,0.00,VWS V14.00,2013-03-20 17:35:00,
2013-03-20 12:40:00,13.8,1.0,30.31,NW,320,7.0,11.0,56,0.00,,CLR,0.00,VWS V14.00,2013-03-20 17:40:00,
2013-03-20 12:45:00,14.0,1.2,30.31,WNW,291,8.0,15.0,56,0.00,,CLR,0.00,VWS V14.00,2013-03-20 17:45:00,
2013-03-20 12:50:00,13.9,1.1,30.31,NW,312,10.0,10.0,56,0.00,,CLR,0.00,VWS V14.00,2013-03-20 17:50:00,
2013-03-20 12:55:00,14.1,1.3,30.31,NW,304,10.0,15.0,56,0.00,,CLR,0.00,VWS V14.00,2013-03-20 17:55:00,
2013-03-20 13:00:00,14.4,2.0,30.30,NW,305,9.0,11.0,57,0.00,,CLR,0.00,VWS V14.00,2013-03-20 18:00:00,
2013-03-20 13:05:00,14.3,1.5,30.30,NW,311,9.0,15.0,56,0.00,,CLR,0.00,VWS V14.00,2013-03-20 18:05:00,
2013-03-20 13:11:00,14.5,1.3,30.30,NW,312,6.0,12.0,55,0.00,,CLR,0.00,VWS V14.00,2013-03-20 18:11:00,
2013-03-20 13:16:00,14.7,1.9,30.30,NW,308,8.0,13.0,56,0.00,,CLR,0.00,VWS V14.00,2013-03-20 18:16:00,
2013-03-20 13:21:00,15.0,2.5,30.30,NNW,327,2.0,8.0,57,0.00,,CLR,0.00,VWS V14.00,2013-03-20 18:21:00,
2013-03-20 13:26:00,15.2,2.3,30.30,NW,309,9.0,13.0,56,0.00,,CLR,0.00,VWS V14.00,2013-03-20 18:26:00,
2013-03-20 13:31:00,15.4,2.5,30.29,WNW,300,11.0,12.0,56,0.00,,CLR,0.00,VWS V14.00,2013-03-20 18:31:00,
2013-03-20 13:36:00,15.5,2.6,30.30,NNW,328,5.0,15.0,56,0.00,,CLR,0.00,VWS V14.00,2013-03-20 18:36:00,
2013-03-20 13:41:00,15.7,3.2,30.29,NW,311,0.0,7.0,57,0.00,,CLR,0.00,VWS V14.00,2013-03-20 18:41:00,
2013-03-20 13:46:00,15.8,2.9,30.29,NW,311,7.0,15.0,56,0.00,,CLR,0.00,VWS V14.00,2013-03-20 18:46:00,
2013-03-20 13:51:00,16.1,3.2,30.29,WNW,293,8.0,10.0,56,0.00,,CLR,0.00,VWS V14.00,2013-03-20 18:51:00,
2013-03-20 13:56:00,16.3,3.4,30.29,NW,312,5.0,11.0,56,0.00,,CLR,0.00,VWS V14.00,2013-03-20 18:56:00,
2013-03-20 14:01:00,16.4,3.1,30.29,NW,312,9.0,10.0,55,0.00,,CLR,0.00,VWS V14.00,2013-03-20 19:01:00,
2013-03-20 14:06:00,16.4,3.5,30.29,NW,305,13.0,14.0,56,0.00,,CLR,0.00,VWS V14.00,2013-03-20 19:06:00,
2013-03-20 14:11:00,16.7,3.7,30.29,WNW,299,4.0,11.0,56,0.00,,CLR,0.00,VWS V14.00,2013-03-20 19:11:00,
2013-03-20 14:16:00,17.2,3.8,30.28,NW,310,3.0,14.0,55,0.00,,CLR,0.00,VWS V14.00,2013-03-20 19:16:00,
2013-03-20 14:21:00,17.3,3.9,30.28,NW,310,9.0,11.0,55,0.00,,CLR,0.00,VWS V14.00,2013-03-20 19:21:00,
2013-03-20 14:26:00,17.6,4.2,30.28,WNW,302,5.0,11.0,55,0.00,,CLR,0.00,VWS V14.00,2013-03-20 19:26:00,
2013-03-20 14:31:00,17.9,4.1,30.28,WNW,300,5.0,11.0,54,0.00,,CLR,0.00,VWS V14.00,2013-03-20 19:31:00,
2013-03-20 14:36:00,17.8,4.0,30.28,NW,304,4.0,12.0,54,0.00,,CLR,0.00,VWS V14.00,2013-03-20 19:36:00,
2013-03-20 14:41:00,18.1,4.7,30.28,WNW,293,2.0,8.0,55,0.00,,CLR,0.00,VWS V14.00,2013-03-20 19:41:00,
2013-03-20 14:46:00,18.4,4.6,30.27,WNW,290,4.0,10.0,54,0.00,,CLR,0.00,VWS V14.00,2013-03-20 19:46:00,
2013-03-20 14:51:00,18.4,4.6,30.27,NNW,328,6.0,8.0,54,0.00,,CLR,0.00,VWS V14.00,2013-03-20 19:51:00,
2013-03-20 14:56:00,18.4,4.9,30.27,NNW,327,0.0,8.0,55,0.00,,CLR,0.00,VWS V14.00,2013-03-20 19:56:00,
2013-03-20 15:01:00,18.4,4.6,30.27,NNW,344,7.0,9.0,54,0.00,,CLR,0.00,VWS V14.00,2013-03-20 20:01:00,
2013-03-20 15:06:00,18.7,5.2,30.27,North,355,12.0,14.0,55,0.00,,CLR,0.00,VWS V14.00,2013-03-20 20:06:00,
2013-03-20 15:12:00,18.8,4.5,30.27,North,355,8.0,14.0,53,0.00,,CLR,0.00,VWS V14.00,2013-03-20 20:12:00,
2013-03-20 15:17:00,18.9,5.0,30.27,North,350,9.0,15.0,54,0.00,,CLR,0.00,VWS V14.00,2013-03-20 20:17:00,
2013-03-20 15:22:00,19.0,4.7,30.27,NNW,346,2.0,14.0,53,0.00,,CLR,0.00,VWS V14.00,2013-03-20 20:22:00,
2013-03-20 15:27:00,19.0,4.7,30.27,NNW,339,7.0,14.0,53,0.00,,CLR,0.00,VWS V14.00,2013-03-20 20:27:00,
2013-03-20 15:32:00,18.9,4.6,30.27,NW,326,2.0,12.0,53,0.00,,CLR,0.00,VWS V14.00,2013-03-20 20:32:00,
2013-03-20 15:37:00,18.9,4.6,30.27,NW,316,4.0,12.0,53,0.00,,CLR,0.00,VWS V14.00,2013-03-20 20:37:00,
2013-03-20 15:42:00,18.8,4.5,30.27,NW,316,7.0,18.0,53,0.00,,CLR,0.00,VWS V14.00,2013-03-20 20:42:00,
2013-03-20 15:47:00,18.9,4.6,30.27,NW,313,9.0,18.0,53,0.00,,CLR,0.00,VWS V14.00,2013-03-20 20:47:00,
2013-03-20 15:52:00,18.8,4.1,30.26,NW,305,9.0,17.0,52,0.00,,CLR,0.00,VWS V14.00,2013-03-20 20:52:00,
2013-03-20 15:57:00,18.4,3.7,30.26,NW,310,10.0,17.0,52,0.00,,CLR,0.00,VWS V14.00,2013-03-20 20:57:00,
2013-03-20 16:02:00,18.4,4.1,30.26,NW,310,9.0,17.0,53,0.00,,CLR,0.00,VWS V14.00,2013-03-20 21:02:00,
2013-03-20 16:07:00,18.5,3.4,30.26,NW,320,12.0,17.0,51,0.00,,CLR,0.00,VWS V14.00,2013-03-20 21:07:00,
2013-03-20 16:12:00,18.3,4.4,30.26,NW,316,6.0,8.0,54,0.00,,CLR,0.00,VWS V14.00,2013-03-20 21:12:00,
2013-03-20 16:17:00,18.5,4.2,30.26,NW,310,6.0,12.0,53,0.00,,CLR,0.00,VWS V14.00,2013-03-20 21:17:00,
2013-03-20 16:22:00,18.7,4.4,30.25,WNW,302,9.0,13.0,53,0.00,,CLR,0.00,VWS V14.00,2013-03-20 21:22:00,
2013-03-20 16:27:00,19.0,4.7,30.25,NW,324,0.0,13.0,53,0.00,,CLR,0.00,VWS V14.00,2013-03-20 21:27:00,
2013-03-20 16:32:00,19.5,5.2,30.25,NW,309,11.0,15.0,53,0.00,,CLR,0.00,VWS V14.00,2013-03-20 21:32:00,
2013-03-20 16:37:00,19.3,4.1,30.25,NW,318,6.0,15.0,51,0.00,,CLR,0.00,VWS V14.00,2013-03-20 21:37:00,
2013-03-20 16:43:00,19.0,4.3,30.24,NW,314,4.0,11.0,52,0.00,,CLR,0.00,VWS V14.00,2013-03-20 21:43:00,
2013-03-20 16:48:00,18.9,4.2,30.24,NW,308,0.0,13.0,52,0.00,,CLR,0.00,VWS V14.00,2013-03-20 21:48:00,
2013-03-20 16:53:00,18.9,3.3,30.24,WNW,301,4.0,15.0,50,0.00,,CLR,0.00,VWS V14.00,2013-03-20 21:53:00,
2013-03-20 16:58:00,18.8,2.8,30.24,NW,316,11.0,16.0,49,0.00,,CLR,0.00,VWS V14.00,2013-03-20 21:58:00,
2013-03-20 17:03:00,18.5,3.0,30.24,NW,312,5.0,15.0,50,0.00,,CLR,0.00,VWS V14.00,2013-03-20 22:03:00,
2013-03-20 17:08:00,18.3,2.8,30.24,NW,312,9.0,15.0,50,0.00,,CLR,0.00,VWS V14.00,2013-03-20 22:08:00,
2013-03-20 17:13:00,18.2,3.1,30.24,NW,308,10.0,14.0,51,0.00,,CLR,0.00,VWS V14.00,2013-03-20 22:13:00,
2013-03-20 17:18:00,18.0,2.5,30.24,NW,320,6.0,15.0,50,0.00,,CLR,0.00,VWS V14.00,2013-03-20 22:18:00,
2013-03-20 17:23:00,17.9,2.8,30.24,NW,309,13.0,14.0,51,0.00,,CLR,0.00,VWS V14.00,2013-03-20 22:23:00,
2013-03-20 17:28:00,17.9,2.8,30.24,NW,306,6.0,17.0,51,0.00,,CLR,0.00,VWS V14.00,2013-03-20 22:28:00,
2013-03-20 17:33:00,17.8,2.8,30.24,NW,317,5.0,14.0,51,0.00,,CLR,0.00,VWS V14.00,2013-03-20 22:33:00,
2013-03-20 17:38:00,17.5,2.0,30.24,NW,310,5.0,15.0,50,0.00,,CLR,0.00,VWS V14.00,2013-03-20 22:38:00,
2013-03-20 17:43:00,17.5,2.5,30.23,WNW,303,7.0,15.0,51,0.00,,CLR,0.00,VWS V14.00,2013-03-20 22:43:00,
2013-03-20 17:48:00,17.4,2.4,30.23,NW,326,9.0,15.0,51,0.00,,CLR,0.00,VWS V14.00,2013-03-20 22:48:00,
2013-03-20 17:53:00,17.2,2.6,30.23,NW,311,6.0,13.0,52,0.00,,CLR,0.00,VWS V14.00,2013-03-20 22:53:00,
2013-03-20 17:58:00,17.2,2.6,30.23,WNW,302,9.0,14.0,52,0.00,,CLR,0.00,VWS V14.00,2013-03-20 22:58:00,
2013-03-20 18:03:00,17.1,2.5,30.23,NW,312,5.0,12.0,52,0.00,,CLR,0.00,VWS V14.00,2013-03-20 23:03:00,
2013-03-20 18:08:00,16.9,2.7,30.23,NW,311,7.0,12.0,53,0.00,,CLR,0.00,VWS V14.00,2013-03-20 23:08:00,
2013-03-20 18:13:00,16.8,2.7,30.23,NW,318,0.0,11.0,53,0.00,,CLR,0.00,VWS V14.00,2013-03-20 23:13:00,
2013-03-20 18:18:00,16.8,2.7,30.23,NW,310,7.0,12.0,53,0.00,,CLR,0.00,VWS V14.00,2013-03-20 23:18:00,
2013-03-20 18:23:00,16.8,2.7,30.23,NW,313,5.0,11.0,53,0.00,,CLR,0.00,VWS V14.00,2013-03-20 23:23:00,
2013-03-20 18:28:00,16.6,2.5,30.23,NW,311,6.0,12.0,53,0.00,,CLR,0.00,VWS V14.00,2013-03-20 23:28:00,
2013-03-20 18:33:00,16.2,2.1,30.22,NW,320,12.0,12.0,53,0.00,,CLR,0.00,VWS V14.00,2013-03-20 23:33:00,
2013-03-20 18:38:00,15.9,2.2,30.22,NW,321,6.0,14.0,54,0.00,,CLR,0.00,VWS V14.00,2013-03-20 23:38:00,
2013-03-20 18:43:00,15.7,2.0,30.22,NW,311,0.0,11.0,54,0.00,,CLR,0.00,VWS V14.00,2013-03-20 23:43:00,
2013-03-20 18:48:00,15.6,1.9,30.22,NW,321,0.0,11.0,54,0.00,,CLR,0.00,VWS V14.00,2013-03-20 23:48:00,
2013-03-20 18:53:00,15.4,2.1,30.22,NW,310,5.0,10.0,55,0.00,,CLR,0.00,VWS V14.00,2013-03-20 23:53:00,
2013-03-20 18:58:00,15.2,2.0,30.22,NW,317,0.0,10.0,55,0.00,,CLR,0.00,VWS V14.00,2013-03-20 23:58:00,
2013-03-20 19:03:00,15.0,1.8,30.22,NW,316,0.0,10.0,55,0.00,,CLR,0.00,VWS V14.00,2013-03-21 00:03:00,
2013-03-20 19:08:00,14.6,1.8,30.22,NW,315,0.0,10.0,56,0.00,,CLR,0.00,VWS V14.00,2013-03-21 00:08:00,
2013-03-20 19:13:00,14.2,1.4,30.22,NW,310,0.0,1.0,56,0.00,,CLR,0.00,VWS V14.00,2013-03-21 00:13:00,
2013-03-20 19:18:00,13.8,1.4,30.22,NW,307,0.0,1.0,57,0.00,,CLR,0.00,VWS V14.00,2013-03-21 00:18:00,
2013-03-20 19:23:00,13.5,1.1,30.22,NW,304,1.0,7.0,57,0.00,,CLR,0.00,VWS V14.00,2013-03-21 00:23:00,
2013-03-20 19:28:00,13.2,1.2,30.22,NW,312,0.0,7.0,58,0.00,,CLR,0.00,VWS V14.00,2013-03-21 00:28:00,
2013-03-20 19:33:00,13.0,1.0,30.22,WNW,301,0.0,7.0,58,0.00,,CLR,0.00,VWS V14.00,2013-03-21 00:33:00,
2013-03-20 19:38:00,12.8,1.2,30.22,NW,304,0.0,7.0,59,0.00,,CLR,0.00,VWS V14.00,2013-03-21 00:38:00,
2013-03-20 19:44:00,12.5,0.9,30.22,NW,305,0.0,1.0,59,0.00,,CLR,0.00,VWS V14.00,2013-03-21 00:44:00,
2013-03-20 19:49:00,12.2,1.0,30.22,NW,306,0.0,1.0,60,0.00,,CLR,0.00,VWS V14.00,2013-03-21 00:49:00,
2013-03-20 19:54:00,11.9,0.7,30.22,NW,306,0.0,1.0,60,0.00,,CLR,0.00,VWS V14.00,2013-03-21 00:54:00,
2013-03-20 19:59:00,11.6,0.4,30.22,NW,306,0.0,1.0,60,0.00,,CLR,0.00,VWS V14.00,2013-03-21 00:59:00,
2013-03-20 20:04:00,11.3,0.5,30.22,NW,306,0.0,0.0,61,0.00,,CLR,0.00,VWS V14.00,2013-03-21 01:04:00,
2013-03-20 20:09:00,10.8,-0.3,30.22,NW,306,0.0,1.0,60,0.00,,CLR,0.00,VWS V14.00,2013-03-21 01:09:00,
2013-03-20 20:14:00,10.3,-0.5,30.22,NW,306,0.0,0.0,61,0.00,,CLR,0.00,VWS V14.00,2013-03-21 01:14:00,
2013-03-20 20:19:00,9.9,-0.9,30.22,NW,306,0.0,0.0,61,0.00,,CLR,0.00,VWS V14.00,2013-03-21 01:19:00,
2013-03-20 20:24:00,9.5,-0.9,30.22,NW,306,0.0,0.0,62,0.00,,CLR,0.00,VWS V14.00,2013-03-21 01:24:00,
2013-03-20 20:29:00,9.2,-1.2,30.22,NW,306,0.0,0.0,62,0.00,,CLR,0.00,VWS V14.00,2013-03-21 01:29:00,
2013-03-20 20:34:00,8.9,-1.5,30.22,NW,306,0.0,0.0,62,0.00,,CLR,0.00,VWS V14.00,2013-03-21 01:34:00,
2013-03-20 20:39:00,8.5,-1.5,30.22,NW,306,0.0,0.0,63,0.00,,CLR,0.00,VWS V14.00,2013-03-21 01:39:00,
2013-03-20 20:44:00,8.2,-1.8,30.22,NW,306,0.0,0.0,63,0.00,,CLR,0.00,VWS V14.00,2013-03-21 01:44:00,
2013-03-20 20:49:00,7.9,-1.7,30.22,NW,306,0.0,0.0,64,0.00,,CLR,0.00,VWS V14.00,2013-03-21 01:49:00,
2013-03-20 20:54:00,7.6,-2.0,30.22,NW,306,0.0,0.0,64,0.00,,CLR,0.00,VWS V14.00,2013-03-21 01:54:00,
2013-03-20 20:59:00,7.5,-1.8,30.22,NW,306,0.0,0.0,65,0.00,,CLR,0.00,VWS V14.00,2013-03-21 01:59:00,
2013-03-20 21:04:00,7.7,-1.6,30.22,NW,306,0.0,0.0,65,0.00,,CLR,0.00,VWS V14.00,2013-03-21 02:04:00,
2013-03-20 21:09:00,7.8,-1.2,30.23,NW,306,0.0,0.0,66,0.00,,CLR,0.00,VWS V14.00,2013-03-21 02:09:00,
2013-03-20 21:14:00,7.8,-1.5,30.23,NW,306,0.0,0.0,65,0.00,,CLR,0.00,VWS V14.00,2013-03-21 02:14:00,
2013-03-20 21:19:00,7.7,-1.6,30.22,NW,306,0.0,1.0,65,0.00,,CLR,0.00,VWS V14.00,2013-03-21 02:19:00,
2013-03-20 21:24:00,7.6,-1.7,30.22,NW,306,0.0,0.0,65,0.00,,CLR,0.00,VWS V14.00,2013-03-21 02:24:00,
2013-03-20 21:29:00,7.4,-1.9,30.22,NW,306,0.0,0.0,65,0.00,,CLR,0.00,VWS V14.00,2013-03-21 02:29:00,
2013-03-20 21:34:00,7.2,-2.1,30.22,NW,306,0.0,0.0,65,0.00,,CLR,0.00,VWS V14.00,2013-03-21 02:34:00,
2013-03-20 21:39:00,6.9,-2.4,30.22,NW,306,0.0,0.0,65,0.00,,CLR,0.00,VWS V14.00,2013-03-21 02:39:00,
2013-03-20 21:44:00,6.6,-2.7,30.22,NW,306,0.0,0.0,65,0.00,,CLR,0.00,VWS V14.00,2013-03-21 02:44:00,
2013-03-20 21:49:00,6.2,-3.0,30.22,NW,306,0.0,0.0,65,0.00,,CLR,0.00,VWS V14.00,2013-03-21 02:49:00,
2013-03-20 21:54:00,5.9,-3.3,30.21,NW,306,0.0,1.0,65,0.00,,CLR,0.00,VWS V14.00,2013-03-21 02:54:00,
2013-03-20 21:59:00,5.4,-3.8,30.21,NW,306,0.0,1.0,65,0.00,,CLR,0.00,VWS V14.00,2013-03-21 02:59:00,
2013-03-20 22:04:00,5.1,-4.1,30.22,NW,306,0.0,0.0,65,0.00,,CLR,0.00,VWS V14.00,2013-03-21 03:04:00,
2013-03-20 22:09:00,4.7,-4.2,30.22,NW,306,0.0,0.0,66,0.00,,CLR,0.00,VWS V14.00,2013-03-21 03:09:00,
2013-03-20 22:14:00,4.5,-4.3,30.22,NW,306,0.0,0.0,66,0.00,,CLR,0.00,VWS V14.00,2013-03-21 03:14:00,
2013-03-20 22:19:00,4.2,-4.6,30.22,NW,306,0.0,0.0,66,0.00,,CLR,0.00,VWS V14.00,2013-03-21 03:19:00,
2013-03-20 22:24:00,4.0,-4.5,30.22,NW,306,0.0,0.0,67,0.00,,CLR,0.00,VWS V14.00,2013-03-21 03:24:00,
2013-03-20 22:29:00,3.9,-4.6,30.22,NW,306,0.0,0.0,67,0.00,,CLR,0.00,VWS V14.00,2013-03-21 03:29:00,
2013-03-20 22:34:00,3.9,-4.6,30.22,NW,306,0.0,0.0,67,0.00,,CLR,0.00,VWS V14.00,2013-03-21 03:34:00,
2013-03-20 22:39:00,3.8,-4.7,30.22,NW,306,0.0,0.0,67,0.00,,CLR,0.00,VWS V14.00,2013-03-21 03:39:00,
2013-03-20 22:44:00,4.1,-4.1,30.21,NW,306,0.0,0.0,68,0.00,,CLR,0.00,VWS V14.00,2013-03-21 03:44:00,
2013-03-20 22:49:00,4.5,-3.7,30.21,NW,306,0.0,0.0,68,0.00,,CLR,0.00,VWS V14.00,2013-03-21 03:49:00,
2013-03-20 22:54:00,5.0,-3.2,30.21,NW,306,0.0,0.0,68,0.00,,CLR,0.00,VWS V14.00,2013-03-21 03:54:00,
2013-03-20 23:00:00,5.2,-3.0,30.21,NW,306,0.0,0.0,68,0.00,,CLR,0.00,VWS V14.00,2013-03-21 04:00:00,
2013-03-20 23:05:00,5.3,-3.3,30.21,NW,306,0.0,0.0,67,0.00,,CLR,0.00,VWS V14.00,2013-03-21 04:05:00,
2013-03-20 23:10:00,5.2,-3.3,30.21,NW,306,0.0,0.0,67,0.00,,CLR,0.00,VWS V14.00,2013-03-21 04:10:00,
2013-03-20 23:15:00,5.2,-3.3,30.21,NW,306,0.0,0.0,67,0.00,,CLR,0.00,VWS V14.00,2013-03-21 04:15:00,
2013-03-20 23:20:00,5.0,-3.5,30.21,NW,306,0.0,0.0,67,0.00,,CLR,0.00,VWS V14.00,2013-03-21 04:20:00,
2013-03-20 23:25:00,4.8,-3.7,30.21,NW,306,0.0,0.0,67,0.00,,CLR,0.00,VWS V14.00,2013-03-21 04:25:00,
2013-03-20 23:30:00,4.6,-3.9,30.21,NW,306,0.0,0.0,67,0.00,,CLR,0.00,VWS V14.00,2013-03-21 04:30:00,
2013-03-20 23:35:00,4.5,-3.7,30.20,NW,306,0.0,0.0,68,0.00,,CLR,0.00,VWS V14.00,2013-03-21 04:35:00,
2013-03-20 23:40:00,4.4,-4.1,30.20,NW,306,0.0,0.0,67,0.00,,CLR,0.00,VWS V14.00,2013-03-21 04:40:00,
2013-03-20 23:45:00,4.2,-4.3,30.20,NW,306,0.0,0.0,67,0.00,,CLR,0.00,VWS V14.00,2013-03-21 04:45:00,
2013-03-20 23:50:00,4.1,-4.4,30.20,NW,306,0.0,0.0,67,0.00,,CLR,0.00,VWS V14.00,2013-03-21 04:50:00,
2013-03-20 23:55:00,4.1,-4.1,30.20,NW,306,0.0,0.0,68,0.00,,CLR,0.00,VWS V14.00,2013-03-21 04:55:00,